This is the latest recevied weather packets stored in our database for station/object KI4MRC. If no packets are shown the sender has not sent any weather packets the latest 1 day(s).
| Time | Temp. | Humidity | Pressure | Rain* | Wind** | Luminosity | Snow |
|---|---|---|---|---|---|---|---|
| 1778000494 | 28.33° C | 74% | 1015.3 hPa | 0 mm | 2.24 m/s, 129° | 220 W/m² | - |
| 1778000189 | 28.89° C | 70% | 1015.1 hPa | 0 mm | 1.34 m/s, 112° | 257 W/m² | - |
| 1777999885 | 28.89° C | 72% | 1015.2 hPa | 0 mm | 0.89 m/s, 45° | 486 W/m² | - |
| 1777999581 | 28.89° C | 70% | 1015.1 hPa | 0 mm | 1.34 m/s, 140° | 461 W/m² | - |
| 1777999279 | 28.89° C | 71% | 1015.2 hPa | 0 mm | 2.24 m/s, 35° | 388 W/m² | - |
| 1777998977 | 28.89° C | 71% | 1015.2 hPa | 0 mm | 0.89 m/s, 70° | 1136 W/m² | - |
| 1777998674 | 28.89° C | 69% | 1015.3 hPa | 0 mm | 1.79 m/s, 58° | 281 W/m² | - |
| 1777998372 | 28.33° C | 72% | 1015.3 hPa | 0 mm | 0.89 m/s, 37° | 307 W/m² | - |
| 1777998069 | 28.33° C | 71% | 1015.5 hPa | 0 mm | 1.34 m/s, 20° | 286 W/m² | - |
| 1777997766 | 28.33° C | 73% | 1015.4 hPa | 0 mm | 1.34 m/s, 34° | 347 W/m² | - |
| 1777997463 | 28.89° C | 73% | 1015.4 hPa | 0 mm | 1.34 m/s, 9° | 939 W/m² | - |
| 1777997161 | 28.89° C | 73% | 1015.5 hPa | 0 mm | 1.34 m/s, 67° | 911 W/m² | - |
| 1777996858 | 28.33° C | 73% | 1015.3 hPa | 0 mm | 1.34 m/s, 29° | 980 W/m² | - |
| 1777996554 | 28.89° C | 73% | 1015.2 hPa | 0 mm | 0.89 m/s, 284° | 878 W/m² | - |
| 1777996251 | 28.33° C | 74% | 1015.3 hPa | 0 mm | 1.34 m/s, 61° | 919 W/m² | - |
| 1777995947 | 27.78° C | 74% | 1015.3 hPa | 0 mm | 1.34 m/s, 111° | 1069 W/m² | - |
| 1777995643 | 27.22° C | 77% | 1015.2 hPa | 0 mm | 0.89 m/s, 30° | 951 W/m² | - |
| 1777995341 | 27.22° C | 76% | 1015.2 hPa | 0 mm | 0 m/s | 222 W/m² | - |
| 1777995038 | 27.22° C | 78% | 1015.1 hPa | 0 mm | 0.45 m/s, 102° | 284 W/m² | - |
| 1777994734 | 27.78° C | 75% | 1015.5 hPa | 0 mm | 1.34 m/s, 92° | 175 W/m² | - |
| 1777994431 | 28.33° C | 71% | 1015.4 hPa | 0 mm | 1.79 m/s, 111° | 577 W/m² | - |
| 1777994130 | 28.33° C | 72% | 1015.3 hPa | 0 mm | 1.79 m/s, 150° | 972 W/m² | - |
| 1777993828 | 28.33° C | 73% | 1015.2 hPa | 0 mm | 0.89 m/s, 117° | 842 W/m² | - |
| 1777993524 | 27.78° C | 76% | 1015.5 hPa | 0 mm | 0.89 m/s, 105° | 881 W/m² | - |
| 1777993221 | 27.22° C | 76% | 1015.5 hPa | 0 mm | 1.34 m/s, 128° | 886 W/m² | - |
* Rain latest hour (hover to see other rain measurements)
** Current wind speed in m/s (hover to see current wind gust speed)